Grand Marais, MN

10:56 PM CST on November 19, 2017 (GMT -0600)
Grand Marais

Weather History for KGNA - September, 2012

Change the Weather History Date:

Wednesday, September 5, 2012

  Actual Average (KCKC) Record (KCKC)
Temperature  
Mean Temperature 64 °F -  
Max Temperature 72 °F 65 °F 87 °F (1998)
Min Temperature 57 °F 47 °F 33 °F (2000)
Degree Days  
Heating Degree Days 1    
Growing Degree Days 14 (Base 50)    
Moisture  
Dew Point 55 °F    
Average Humidity 76    
Maximum Humidity 93    
Minimum Humidity 49    
Precipitation  
Precipitation 0.00 in - - ()
Sea Level Pressure  
Sea Level Pressure 29.73 in    
Wind  
Wind Speed 3 mph (WNW)    
Max Wind Speed 16 mph    
Max Gust Speed 32 mph    
Averages and records for this station are not official NWS values.
T = Trace of Precipitation, MM = Missing Value Source: NWS Daily Summary

Daily Weather History Graph

Daily Weather History Graph

Search for Another Location

Airport or City:

Trip Planner

Search our weather history database for the weather conditions in past years. The results will help you decide how hot, cold, wet, or windy it might be!

Date:

Astronomy

Sep. 05, 2012 Rise Set
Actual Time 6:25 AM CDT 7:32 PM CDT
Civil Twilight 5:54 AM CDT 8:04 PM CDT
Nautical Twilight 5:15 AM CDT 8:42 PM CDT
Astronomical Twilight 4:35 AM CDT 9:22 PM CDT
Moon 9:34 PM CDT (9/5) 11:57 AM CDT (9/5)
Length of Visible Light 14h 10m
Length of Day
13h 07m
Waning Gibbous, 76% of the Moon is Illuminated
Sep 5
Waning Gibbous
Sep 8
Last Quarter
Sep 15
New
Sep 22
First Quarter
Sep 29
Full

Hourly Weather History & Observations

Time (CDT) Temp. Dew Point Humidity Pressure Visibility Wind Dir Wind Speed Gust Speed Precip Events Conditions
12:56 AM 60.1 °F 57.0 °F 90% 29.72 in - Calm Calm - N/A   Unknown
1:56 AM 59.0 °F 57.0 °F 93% 29.72 in - Calm Calm - N/A   Unknown
2:56 AM 57.9 °F 55.9 °F 93% 29.71 in - NW 3.5 mph - N/A   Unknown
3:56 AM 59.0 °F 55.9 °F 90% 29.74 in - Calm Calm - N/A   Unknown
4:56 AM 60.1 °F 57.0 °F 90% 29.70 in - Calm Calm - N/A   Unknown
5:56 AM 61.0 °F 57.0 °F 87% 29.72 in - West 3.5 mph - N/A   Unknown
6:56 AM 64.9 °F 55.0 °F 70% 29.70 in - NW 9.2 mph 23.0 mph N/A   Unknown
7:56 AM 68.0 °F 53.1 °F 59% 29.67 in - NNW 16.1 mph 32.2 mph N/A   Unknown
8:56 AM 71.1 °F 51.1 °F 49% 29.65 in - NNW 13.8 mph 25.3 mph N/A   Unknown
9:56 AM 70.0 °F 51.1 °F 51% 29.68 in - NW 10.4 mph 24.2 mph N/A   Unknown
10:56 AM 64.0 °F 55.0 °F 73% 29.77 in - West 5.8 mph - N/A   Unknown
11:56 AM 62.1 °F 54.0 °F 75% 29.76 in - West 3.5 mph - N/A   Unknown
12:56 PM 60.1 °F 54.0 °F 80% 29.74 in - Calm Calm - N/A   Unknown
1:56 PM 62.1 °F 53.1 °F 72% 29.73 in - SSW 6.9 mph - N/A   Unknown
2:56 PM 66.0 °F 55.9 °F 70% 29.74 in - West 3.5 mph - N/A   Unknown
3:56 PM 69.1 °F 57.9 °F 68% 29.74 in - Variable 3.5 mph - N/A   Unknown
4:56 PM 68.0 °F 57.9 °F 70% 29.73 in - Variable 3.5 mph - N/A   Unknown
5:56 PM 68.0 °F 57.0 °F 68% 29.74 in - Variable 3.5 mph - N/A   Unknown
6:56 PM 66.0 °F 54.0 °F 65% 29.74 in - Calm Calm - N/A   Unknown
7:56 PM 62.1 °F 54.0 °F 75% 29.76 in - Calm Calm - N/A   Unknown
8:56 PM 57.9 °F 53.1 °F 84% 29.77 in - Calm Calm - N/A   Unknown
9:56 PM 57.0 °F 52.0 °F 83% 29.77 in - Calm Calm - N/A   Unknown
10:56 PM 57.0 °F 51.1 °F 81% 29.78 in - West 3.5 mph - N/A   Unknown
11:56 PM 57.0 °F 50.0 °F 77% 29.79 in - Calm Calm - N/A   Unknown